When you browse on this site, cookies collect data to enhance your experience and personalize the content and advertising you see.
Visit our Privacy Policy to learn more. By continuing to use the site, you agree to this use of cookies and data.
  • In Germany
  • List of Countries
  • For 7 days
  • Water Temperature
  • Satellite Maps
  • Weather Map
  • Weather Widgets
  • user-avatar
    Login

    Hourly Weather Lahi

    Today, 18 November, Sunday

    Time Temperature Precipitation Wind Pressure Humidity
    00:00 -4°C° 0 mm 4 mps 751 mmHg 70%
    01:00 -4°C° 0 mm 4 mps 750 mmHg 73%
    02:00 -3°C° 0 mm 4 mps 749 mmHg 69%
    03:00 -3°C° 0.1 mm 4 mps 748 mmHg 74%
    04:00 -3°C° 0.1 mm 4 mps 748 mmHg 79%
    05:00 -3°C° 0.1 mm 4 mps 747 mmHg 83%
    06:00 -2°C° 0.1 mm 3 mps 746 mmHg 86%
    07:00 -2°C° 0.1 mm 3 mps 746 mmHg 89%
    08:00 -2°C° 0.1 mm 3 mps 746 mmHg 92%
    09:00 -2°C° 0.1 mm 2 mps 746 mmHg 91%
    10:00 -1°C° 0.1 mm 2 mps 746 mmHg 91%
    11:00 -1°C° 0.1 mm 2 mps 746 mmHg 91%
    12:00 -1°C° 0 mm 2 mps 745 mmHg 91%
    13:00 -1°C° 0 mm 2 mps 745 mmHg 91%
    14:00 +2°C° 0 mm 1 mps 745 mmHg 91%
    15:00 +1°C° 0 mm 1 mps 746 mmHg 92%
    16:00 +1°C° 0 mm 1 mps 746 mmHg 94%
    17:00 +1°C° 0 mm 1 mps 746 mmHg 96%
    18:00 +1°C° 0 mm 1 mps 746 mmHg 96%
    19:00 0°C° 0 mm 0 mps 746 mmHg 96%
    20:00 0°C° 0 mm 0 mps 746 mmHg 96%
    21:00 0°C° 0 mm 0 mps 747 mmHg 96%
    22:00 0°C° 0 mm 0 mps 747 mmHg 96%
    23:00 0°C° 0 mm 0 mps 747 mmHg 96%

    Tomorrow, 19 November, Monday

    Time Temperature Precipitation Wind Pressure Humidity
    00:00 0°C° 0 mm 0 mps 747 mmHg 96%
    01:00 +1°C° 0 mm 1 mps 748 mmHg 96%
    02:00 +1°C° 0 mm 1 mps 748 mmHg 96%
    03:00 +1°C° 0 mm 1 mps 748 mmHg 96%
    04:00 +1°C° 0 mm 1 mps 748 mmHg 96%
    05:00 +1°C° 0 mm 1 mps 749 mmHg 96%
    06:00 +1°C° 0 mm 1 mps 749 mmHg 96%
    07:00 +1°C° 0 mm 1 mps 749 mmHg 96%
    08:00 -1°C° 0 mm 2 mps 749 mmHg 96%
    09:00 -1°C° 0 mm 2 mps 750 mmHg 94%
    10:00 +1°C° 0 mm 2 mps 750 mmHg 91%
    11:00 +1°C° 0 mm 2 mps 751 mmHg 89%
    12:00 +1°C° 0 mm 2 mps 751 mmHg 89%
    13:00 +1°C° 0 mm 2 mps 751 mmHg 89%
    14:00 +1°C° 0 mm 2 mps 751 mmHg 89%
    15:00 0°C° 0 mm 3 mps 751 mmHg 90%
    16:00 0°C° 0 mm 3 mps 751 mmHg 91%
    17:00 -1°C° 0 mm 3 mps 751 mmHg 92%
    18:00 -1°C° 0 mm 3 mps 751 mmHg 92%
    19:00 -1°C° 0 mm 3 mps 751 mmHg 92%
    20:00 -1°C° 0 mm 3 mps 752 mmHg 92%
    21:00 -1°C° 0 mm 3 mps 752 mmHg 92%
    22:00 -1°C° 0 mm 3 mps 752 mmHg 92%
    23:00 -1°C° 0 mm 3 mps 752 mmHg 92%

    Day after tomorrow, 20 November, Tuesday

    Time Temperature Precipitation Wind Pressure Humidity
    00:00 -1°C° 0 mm 3 mps 752 mmHg 92%
    01:00 -1°C° 0 mm 3 mps 752 mmHg 92%
    02:00 -1°C° 0 mm 2 mps 752 mmHg 92%
    03:00 -1°C° 0 mm 3 mps 751 mmHg 92%
    04:00 -1°C° 0 mm 3 mps 751 mmHg 93%
    05:00 -1°C° 0 mm 3 mps 751 mmHg 93%
    06:00 -1°C° 0 mm 3 mps 751 mmHg 93%
    07:00 -1°C° 0 mm 3 mps 751 mmHg 92%
    08:00 -2°C° 0 mm 3 mps 751 mmHg 92%
    09:00 -1°C° 0 mm 3 mps 751 mmHg 90%
    10:00 -1°C° 0 mm 3 mps 751 mmHg 88%
    11:00 -1°C° 0 mm 3 mps 751 mmHg 86%
    12:00 -1°C° 0 mm 2 mps 751 mmHg 84%
    13:00 -1°C° 0 mm 2 mps 751 mmHg 83%
    14:00 -1°C° 0 mm 2 mps 751 mmHg 82%
    15:00 -1°C° 0 mm 2 mps 751 mmHg 83%
    16:00 +1°C° 0 mm 1 mps 751 mmHg 83%
    17:00 0°C° 0 mm 1 mps 751 mmHg 84%
    18:00 0°C° 0 mm 1 mps 751 mmHg 84%
    19:00 0°C° 0 mm 1 mps 751 mmHg 84%
    20:00 0°C° 0 mm 1 mps 751 mmHg 84%
    21:00 0°C° 0 mm 1 mps 751 mmHg 84%
    22:00 0°C° 0 mm 1 mps 751 mmHg 84%
    23:00 0°C° 0 mm 1 mps 751 mmHg 84%

    21 November, Wednesday

    Time Temperature Precipitation Wind Pressure Humidity
    00:00 0°C° 0 mm 1 mps 751 mmHg 84%
    01:00 0°C° 0 mm 1 mps 751 mmHg 85%
    02:00 0°C° 0 mm 1 mps 751 mmHg 86%
    03:00 0°C° 0 mm 1 mps 751 mmHg 86%
    04:00 -1°C° 0 mm 1 mps 751 mmHg 87%
    05:00 -1°C° 0 mm 1 mps 751 mmHg 88%
    06:00 -1°C° 0 mm 1 mps 751 mmHg 88%
    07:00 -3°C° 0 mm 2 mps 751 mmHg 88%
    08:00 -3°C° 0 mm 2 mps 751 mmHg 89%
    09:00 -2°C° 0 mm 2 mps 751 mmHg 84%
    10:00 -2°C° 0 mm 2 mps 751 mmHg 80%
    11:00 -2°C° 0 mm 2 mps 751 mmHg 76%
    12:00 -2°C° 0 mm 2 mps 750 mmHg 76%
    13:00 -2°C° 0 mm 2 mps 750 mmHg 75%
    14:00 -2°C° 0 mm 2 mps 750 mmHg 75%
    15:00 -2°C° 0 mm 2 mps 750 mmHg 79%
    16:00 -3°C° 0 mm 2 mps 750 mmHg 82%
    17:00 -3°C° 0 mm 2 mps 750 mmHg 86%
    18:00 -3°C° 0 mm 2 mps 750 mmHg 85%
    19:00 -3°C° 0 mm 2 mps 750 mmHg 84%
    20:00 -3°C° 0 mm 2 mps 750 mmHg 83%
    21:00 -3°C° 0 mm 2 mps 750 mmHg 83%
    22:00 -3°C° 0 mm 2 mps 750 mmHg 82%
    23:00 0°C° 0 mm 1 mps 751 mmHg 82%

    22 November, Thursday

    Time Temperature Precipitation Wind Pressure Humidity
    00:00 0°C° 0 mm 1 mps 751 mmHg 83%
    01:00 -1°C° 0 mm 1 mps 751 mmHg 84%
    02:00 -1°C° 0 mm 1 mps 751 mmHg 85%
    03:00 -1°C° 0 mm 1 mps 750 mmHg 86%
    04:00 -3°C° 0 mm 2 mps 750 mmHg 87%
    05:00 -4°C° 0 mm 2 mps 750 mmHg 89%
    06:00 -4°C° 0 mm 2 mps 750 mmHg 88%
    07:00 -4°C° 0 mm 2 mps 750 mmHg 88%
    08:00 -4°C° 0 mm 2 mps 750 mmHg 87%
    09:00 -3°C° 0 mm 2 mps 750 mmHg 84%
    10:00 -4°C° 0 mm 3 mps 750 mmHg 80%
    11:00 -2°C° 0 mm 3 mps 750 mmHg 76%
    12:00 -2°C° 0 mm 3 mps 750 mmHg 77%
    13:00 -2°C° 0 mm 3 mps 750 mmHg 77%
    14:00 -2°C° 0 mm 3 mps 750 mmHg 78%
    15:00 -2°C° 0 mm 3 mps 750 mmHg 81%
    16:00 -4°C° 0 mm 3 mps 750 mmHg 85%
    17:00 -5°C° 0 mm 3 mps 750 mmHg 88%
    18:00 -5°C° 0 mm 3 mps 750 mmHg 89%
    19:00 -5°C° 0 mm 3 mps 750 mmHg 90%
    20:00 -5°C° 0 mm 3 mps 750 mmHg 91%
    21:00 -5°C° 0 mm 3 mps 751 mmHg 90%
    22:00 -5°C° 0 mm 3 mps 751 mmHg 89%
    23:00 -4°C° 0 mm 2 mps 751 mmHg 88%

    23 November, Friday

    Time Temperature Precipitation Wind Pressure Humidity
    00:00 -4°C° 0 mm 2 mps 751 mmHg 88%
    01:00 -3°C° 0 mm 2 mps 751 mmHg 88%
    02:00 -3°C° 0 mm 2 mps 751 mmHg 88%
    03:00 -3°C° 0 mm 2 mps 752 mmHg 89%
    04:00 -3°C° 0 mm 2 mps 752 mmHg 89%
    05:00 -3°C° 0 mm 2 mps 752 mmHg 90%
    06:00 -1°C° 0 mm 1 mps 752 mmHg 90%
    07:00 -1°C° 0 mm 1 mps 752 mmHg 91%
    08:00 -2°C° 0 mm 1 mps 752 mmHg 92%
    09:00 -1°C° 0 mm 1 mps 752 mmHg 89%
    10:00 0°C° 0 mm 1 mps 752 mmHg 86%
    11:00 0°C° 0 mm 1 mps 752 mmHg 83%
    12:00 -2°C° 0 mm 2 mps 752 mmHg 83%
    13:00 -2°C° 0 mm 2 mps 752 mmHg 83%
    14:00 -2°C° 0 mm 2 mps 752 mmHg 84%
    15:00 -2°C° 0 mm 2 mps 751 mmHg 87%
    16:00 -3°C° 0 mm 2 mps 751 mmHg 90%
    17:00 -4°C° 0 mm 2 mps 751 mmHg 94%
    18:00 -4°C° 0 mm 2 mps 750 mmHg 94%
    19:00 -4°C° 0 mm 2 mps 750 mmHg 94%
    20:00 -5°C° 0 mm 3 mps 750 mmHg 94%
    21:00 -6°C° 0 mm 3 mps 749 mmHg 94%
    22:00 -6°C° 0 mm 3 mps 749 mmHg 94%
    23:00 -6°C° 0 mm 3 mps 749 mmHg 93%
    Show more